Home Eventi Icebreaker – Hell’s Race #Glacier

Icebreaker – Hell’s Race #Glacier

La Icebreaker Hell’s Race Glacier Edition è la versione invernale della Hell’s Race. Un tracciato di 8 km con 20 ostacoli da affrontare, in una cornice naturale davvero unica: Sella Nevea e le sue montagne innevate.

Molti ostacoli della Hell’s Race saranno ancora più diabolici, per via della neve e del freddo. Vedremo anche importanti novità a tema

Classifica Hell’s Race Glacier

La classifica ufficiale della Hell’s Race si può trovare presso le fonti ufficiali (il sito della Hell’s Race – organizzatore dell’evento – ed il sito dei cronometristi, Icron)

Qui la classifica della Hell’s Race è riportata per comodità degli utenti, con un copia/incolla il giorno dopo della gara. Lavalenza è solamente quella per la consultazione e non presenta quindi elementi ufficiali.

##sex CognomeNomeBracc /TempoAge#ageSquadra
11PezzaniLuca3 / 1:08:43M 30-341OCR TICINO
22GeorgievVelizar3 / 1:11:12M 35-391L'ISOLA CHE NON C'E' OCR
33Roda'Federico3 / 1:14:30M 30-342SPARTANI DELL'APPENNINO
44MarucciAlberto3 / 1:16:02M 30-343TEAM GRAPPA BOY
55MaffeiGiacomo3 / 1:16:38M 30-344SCOTT OCR TEAM ITALY LWT
66SpaccazocchiJacopo Bruno3 / 1:17:34M 18-241KNIGHT RACE TEAM
77Delli ZottiMassimo3 / 1:20:10M 30-345OCR SQUAD FRIULI VENEZIA GIULIA
88PiazzaDario3 / 1:20:32M 30-346OCR TICINO
99PrettoAlberto3 / 1:22:24M 35-392INDIVIDUALE
1010PellegriniFederico3 / 1:24:10M 18-242DDD METHOD
1111TiberiAntonio3 / 1:24:13M 40-441KNIGHT RACE TEAM
1212PeripoliNicola3 / 1:25:04M 25-291INDIVIDUALE
1313ValtortaMatteo3 / 1:25:20M 35-393OCR TEAM VIBRAM SPORT R*EVOLUTION
1414RestucciaNicolo3 / 1:25:26M 35-394BEAR BROTHER'S GANG
1515BonaitaAlex3 / 1:26:10M 35-395OCR TEAM VIBRAM SPORT R*EVOLUTION
1616BonfantiAndrea3 / 1:26:10M 35-396VIKING WARRIOR OCR TEAM
1717ViolaStefano3 / 1:26:51M 25-292OWA TEAM
1818SondaAndrea3 / 1:28:02M 30-347BEAR BROTHER'S GANG
1919ZancanellaThomas3 / 1:28:08M 40-442MAD SQUAD
2020BettiRiccardo3 / 1:28:18M 25-293SPARTANI DELL'APPENNINO
2121ManfronRiccardo3 / 1:32:01M 35-397SCOTT OCR TEAM ITALY LWT
2222MassimianiFabiano3 / 1:34:26M 25-294ANIS MUDDERS
2323StroiliGianluca3 / 1:35:01M 25-295OCR SQUAD FRIULI VENEZIA GIULIA
2424MartiniPietro3 / 1:35:01M 50-991TEAM GRAPPA BOY
2525VidaleTommaso3 / 1:35:19M 30-348INDIVIDUALE
2626DiniMichele3 / 1:35:43M 35-398KNIGHT RACE TEAM
2727RavizzaMarco3 / 1:38:52M 50-992TEAM WRI
281Di GregorioClaudia3 / 1:39:08F 18-291INVICTUS ABRUZZO
2928PascoloAndrea3 / 1:39:12M 25-296INDIVIDUALE
3029BalseminMichael3 / 1:42:00M 25-297VIKING WARRIOR OCR TEAM
3130VenturiniSimone3 / 1:42:40M 35-399INDIVIDUALE
3231BarchiesiMatteo3 / 1:44:19M 18-243L'ISOLA CHE NON C'E' OCR
3332Lo MonacoAndrea3 / 1:46:25M 25-298OCR SQUAD FRIULI VENEZIA GIULIA
3433CaprioliLuigino3 / 1:47:13M 45-491ANIMALS OCR TEAM
352SciallaErika3 / 1:48:22F 18-292OWA TEAM
3634BettoliFabio3 / 1:48:49M 30-349VIKING WARRIOR OCR TEAM
3735De PraJacopo3 / 1:51:40M 35-3910BB OCR LAB
3836ReggianiRuben3 / 1:52:30M 40-443AROUND THE WOD
3937OrsoSebastiano3 / 1:57:53M 30-3410OCR SQUAD FRIULI VENEZIA GIULIA
4038PillaMorris3 / 2:01:20M 30-3411ASD HURRICANE FUNCTIONAL TRAINING
4139Malave VergaraCesar Manuel3 / 2:04:33M 18-244INDIVIDUALE
4240BeltrameMatteo3 / 2:05:00M 35-3911ASD HURRICANE FUNCTIONAL TRAINING
4341PasinelliDavide3 / 2:06:02M 35-3912VIKING WARRIOR OCR TEAM
4442AppioNicola2 / 1:20:24M 30-3412INDIVIDUALE
4543DianuIon2 / 1:26:03M 30-3413BE AKTIVE
4644PaganinLorenzo2 / 1:33:47M 25-299IO ME E LORE
4745CameraAlex2 / 1:41:12M 30-3414TEAM GRAPPA BOY
483RedaelliMichela2 / 1:42:21F 18-293OWA TEAM
4946MasieroEnrico Maria2 / 1:43:55M 40-444INDIVIDUALE
5047BoscoloMauro2 / 1:45:42M 45-492ASD HURRICANE FUNCTIONAL TRAINING
5148RigoFederico Tomas2 / 1:47:25M 25-2910INDIVIDUALE
5249SiestoLuigi2 / 1:51:55M 35-3913OCR SQUAD FRIULI VENEZIA GIULIA
5350MariniAdamo2 / 1:53:12M 50-993SPARTAN VICENZA
5451MarcatoSimone2 / 1:54:37M 40-445VIKING WARRIOR OCR TEAM
5552PaparattoDavide Pasquale2 / 1:54:47M 30-3415BAD SPARTANS
5653CarlettiMassimo2 / 1:59:29M 40-446OWA TEAM
5754ZambonZeno2 / 2:05:45M 30-3416INDIVIDUALE
5855CrivellariMorris2 / 2:15:07M 35-3914ASD HURRICANE FUNCTIONAL TRAINING
594BruniLuigia2 / 2:32:32F 40-991OCR SQUAD FRIULI VENEZIA GIULIA
6056CarraraJacopo2 / 2:36:47M 30-3417INDIVIDUALE
615DainiElena2 / 2:52:24F 18-294AROUND THE WOD
626La SpadaGiada2 / 2:53:19F 30-391BB OCR LAB
637CzubertFrancesca2 / 3:12:49F 40-992INGRADO
6457De StefaniLorenzo1 / 1:29:34M 35-3915BE AKTIVE
6558SchirruVittorio1 / 1:37:00M 45-493INVICTUS EPIC RACE
6659GorassoMassimo1 / 1:37:05M 40-447INDIVIDUALE
6760AnderliniJonathan1 / 1:37:21M 30-3418OCR TICINO
6861GiacomazziDaniele1 / 1:38:11M 40-448VIKING WARRIOR OCR TEAM
6962BrentiniVincent1 / 1:39:28M 30-3419OCR TICINO
7063ButtiAlessandro1 / 1:40:43M 35-3916INVICTUS TEAM
7164PellegrinStefano1 / 1:43:05M 25-2911OCR SQUAD FRIULI VENEZIA GIULIA
7265Boscolo NataSimone1 / 1:46:53M 18-245ASD HURRICANE FUNCTIONAL TRAINING
7366SartorioAndrea1 / 1:47:33M 30-3420BAD SPARTANS
7467CorteseSimone1 / 1:50:35M 45-494SPARTAN VICENZA
758AssuelliFabiola1 / 1:50:46F 30-392OCR TICINO
7668PiermariniRoberto1 / 1:51:47M 35-3917DREAM TEAM
7769SottileDenis1 / 1:52:41M 30-3421OCR SQUAD FRIULI VENEZIA GIULIA
7870BertosMatteo1 / 1:53:39M 30-3422INDIVIDUALE
7971BarbieriFrancesco1 / 1:59:07M 30-3423INDIVIDUALE
8072BianchiniMarcello1 / 1:59:31M 35-3918VIKING WARRIOR OCR TEAM
8173LazzeriniLeandro1 / 1:59:46M 30-3424SPARTANI DELL'APPENNINO
8274VitrottiEdoardo1 / 2:02:16M 45-495INDIVIDUALE
8375GallinaGianalberto1 / 2:03:30M 25-2912INDIVIDUALE
849CallegariVeronica1 / 2:04:55F 18-295BE AKTIVE
8576SonaClaudio1 / 2:05:09M 30-3425INDIVIDUALE
8677SchiavoniLoris1 / 2:06:40M 18-246INDIVIDUALE
8778SeghettaMatteo1 / 2:06:43M 30-3426LA FENICE
8879IncognitoMarco1 / 2:07:27M 25-2913BE AKTIVE
8980RomanelloLoris1 / 2:07:32M 45-496HOOKGRIP
9010PastoriAmbra1 / 2:08:18F 30-393BE AKTIVE
9181FornariLeonardo1 / 2:08:29M 35-3919LA FENICE
9282MarsicoFederico1 / 2:11:48M 45-497BAD SPARTANS
9383SemoliniAndrea1 / 2:12:31M 30-3427INDIVIDUALE
9484Di PietroFrancesco1 / 2:12:54M 35-3920BEAR BROTHER'S GANG
9585BergoChristian1 / 2:13:09M 18-247INDIVIDUALE
9686Boscolo CaporaleLuca1 / 2:14:43M 30-3428ASD HURRICANE FUNCTIONAL TRAINING
9787SalvagnoValerio1 / 2:19:05M 35-3921ASD HURRICANE FUNCTIONAL TRAINING
9888PetrisLuca1 / 2:19:15M 45-498HOOKGRIP
9989GugoleFabio1 / 2:19:43M 35-3922BEAR BROTHER'S GANG
10090MarinelliNicola1 / 2:19:47M 35-3923KNIGHT RACE TEAM
10191Dal ZottoStefano1 / 2:20:32M 35-3924INDIVIDUALE
10211RomitiCaterina1 / 2:22:39F 30-394INDIVIDUALE
10392VianelloAndrea1 / 2:23:53M 30-3429ASD HURRICANE FUNCTIONAL TRAINING
10493Boscolo ContadinLuca1 / 2:26:27M 18-248ASD HURRICANE FUNCTIONAL TRAINING
10512BusattoEster1 / 2:30:13F 40-993ASD HURRICANE FUNCTIONAL TRAINING
10613BaliccoAlice1 / 2:33:24F 30-395SCOTT OCR TEAM ITALY LWT
10714CorrainJessica1 / 2:33:53F 18-296OCR SQUAD FRIULI VENEZIA GIULIA
10815SalaLuciana1 / 2:34:27F 40-994VIKING WARRIOR OCR TEAM
10994BorinEmiliano1 / 2:46:48M 40-449VIKING WARRIOR OCR TEAM
11016Dal CinFederica1 / 2:47:08F 30-396INDIVIDUALE
11195CreaWalter1 / 2:50:36M 25-2914INDIVIDUALE
11296ScaramuzzaLorenzo1 / 3:11:48M 30-3430INGRADO
11397ZucchettoAndrea1 / 3:12:49M 25-2915INGRADO
11498VianneiMassimo1 / 3:14:01M 50-994INDIVIDUALE
11599UrsicMartin1 / 3:17:12M 35-3925OCR SQUAD FRIULI VENEZIA GIULIA
116100DanesiGiacomo0 / 1:36:01M 30-3431INDIVIDUALE
117101Boscolo ContadinLoredano0 / 1:43:32M 45-499ASD HURRICANE FUNCTIONAL TRAINING
118102VattoloGraziano0 / 1:50:52M 40-4410INDIVIDUALE
11917CacciavillaniJennifer0 / 1:54:07F 30-397INGRADO
12018De CandidoEvita0 / 2:00:32F 40-995OCR SQUAD FRIULI VENEZIA GIULIA
121103ButtignoniEnrico0 / 2:04:40M 30-3432INDIVIDUALE
122104AvanziNiccolo0 / 2:05:14M 25-2916BEAR BROTHER'S GANG
123105BiasottoDomenico0 / 2:06:16M 35-3926DAJE TUTTAAA!!!
124106VinziGustavo0 / 2:08:10M 30-3433INDIVIDUALE
12519MoschettaElena0 / 2:08:26F 30-398INDIVIDUALE
126107BiasiDaniele0 / 2:11:19M 25-2917LIBERO
127108SturariNicola0 / 2:11:53M 45-4910BEAR BROTHER'S GANG
128109DebernardiMarco0 / 2:12:50M 35-3927INDIVIDUALE
129110GiuntiniAlberto0 / 2:18:57M 40-4411INDIVIDUALE
130111CristofoliMattia0 / 2:21:23M 30-3434OCR SQUAD FRIULI VENEZIA GIULIA
131112VeiziEndi0 / 2:21:24M 25-2918INDIVIDUALE
132113RossatoMassimiliano0 / 2:21:58M 45-4911OCR SQUAD FRIULI VENEZIA GIULIA
13320ContuDoina0 / 2:23:33F 18-297ASD HURRICANE FUNCTIONAL TRAINING
134114Boscolo GalloMax0 / 2:26:38M 45-4912ASD HURRICANE FUNCTIONAL TRAINING
135115HermannFabrizio0 / 2:29:12M 40-4412HIGH DEFINITION OCR TEAM
136116PizzignachIvano0 / 2:30:10M 35-3928CORPO LIBERO
13721PaschosChristina0 / 2:31:50F 40-996AROUND THE WOD
13822MoroSofia0 / 2:36:27F 18-298AA - MATTIA FERESIN
139117FeresinMattia0 / 2:36:28M 25-2919AA - MATTIA FERESIN
140118ButtiFabrizio0 / 2:40:34M 35-3929INDIVIDUALE
141119RavagnanRiccardo0 / 2:40:36M 30-3435REVENGE
14223GreattiChiara0 / 2:41:23F 30-399HIGH DEFINITION OCR TEAM
14324PeriniElena0 / 2:42:33F 30-3910ASD HURRICANE FUNCTIONAL TRAINING
144120CenciEnrico0 / 2:45:41M 35-3930INDIVIDUALE
14525CittonElisa0 / 2:45:42F 40-997INDIVIDUALE
14626RaminPaola0 / 2:50:48F 18-299ASD HURRICANE FUNCTIONAL TRAINING
14727MarchesanElisa0 / 2:51:26F 18-2910ASD HURRICANE FUNCTIONAL TRAINING
148121Tiozzo NettiMario0 / 2:52:40M 40-4413INDIVIDUALE
14928RoversiGiulia0 / 2:56:23F 30-3911AROUND THE WOD
150122D`AgostiniDonato0 / 2:57:11M 40-4414INDIVIDUALE
151123SaleriGualtiero0 / 2:57:30M 45-4913BEAR BROTHER'S GANG
152124BellaGianni0 / 3:02:29M 50-995INDIVIDUALE
15329FerrariMarcella0 / 3:02:45F 40-998OCR TEAM VIBRAM SPORT R*EVOLUTION
15430CamelinFederica0 / 3:07:39F 30-3912BB OCR LAB
155125CandottoDavide0 / 3:11:15M 25-2920INDIVIDUALE
156126IetriMichele0 / 3:11:50M 25-2921INGRADO
157127AugustiDaniele0 / 3:12:28M 45-4914INGRADO
158128SonegoRenato0 / 3:13:17M 50-996STAR
159129TestonAmorino0 / 3:14:09M 50-997STAR
160130SequinoRiccardo0 / 3:14:14M 35-3931STAR
16131Palmieri MoellerSilvia0 / 3:20:12F 40-999OCR TEAM VIBRAM SPORT R*EVOLUTION
162131D'OnofrioGiulio0 / 3:21:08M 25-2922INDIVIDUALE
163132FaccaAndrea0 / 3:22:58M 18-249INDIVIDUALE
{{ reviewsOverall }} / 5 Utenti (0 voti)
Voto generale gara0
Voto generale ostacoli0
Organizzazione e villaggio0
Location e percorso0
Corsie libere0
Segnalazioni percorso0
Opinioni Lascia la tua recensione!
Ordina per:

Sii il primo a lasciare una recensione.

Verificato
{{{ review.rating_title }}}
{{{review.rating_comment | nl2br}}}

La recensione non ha ancora risposte.

Avatar
Di Più
Di Più
{{ pageNumber+1 }}
Lascia la tua recensione!

Hits: 258

The event is finished.

Data

Apr 17 2021
Expired!

Ora

08:00 - 18:00

Etichette

Interesse Nazionale

Luogo

Sella Nevea
33010 Sella Nevea, UD, Italia

Organizzatore

Cristian della Vedova
X